Location: *
(55.6049°S, 142.1985°W)
Time: 01:03:07
(UTC+00:00)

Cosmos 1943 - Pass Details

Date: 12 May 2021
Orbit: 833 x 850 km, 71.0° (Epoch: 18 June)

Event Time Altitude Azimuth Distance (km) Brightness Sun altitude
Exits shadow 14:09:23 21° 198° (SSW) 1,843 4.8 -25.7°
Maximum altitude 14:12:51 43° 138° (SE) 1,196 4.2 -25.2°
Drops below altitude 10° 14:18:16 10° 66° (ENE) 2,482 6.5 -24.4°
Sets 14:20:50 0° 59° (ENE) 3,408 7.2 -24.1°
